Kaneohe MCBH, HI

3:47 PM HST on November 17, 2017 (GMT -1000)
Kaneohe Bay Marine Corps Air Facility

Weather History for PHNG - December, 2012

Change the Weather History Date:

Monday, December 3, 2012

  Actual Average Record
Temperature  
Mean Temperature 77 °F -  
Max Temperature 81 °F 76 °F 82 °F (2013)
Min Temperature 73 °F 69 °F 68 °F (2014)
Cooling Degree Days 12    
Growing Degree Days 27 (Base 50)    
Moisture  
Dew Point 70 °F    
Average Humidity 79    
Maximum Humidity 95    
Minimum Humidity 69    
Precipitation  
Precipitation 0.00 in - - ()
Sea Level Pressure  
Sea Level Pressure 29.94 in    
Wind  
Wind Speed 6 mph (SSW)    
Max Wind Speed 13 mph    
Max Gust Speed -    
Visibility 10 miles    
Events Rain    
Averages and records for this station are not official NWS values.
T = Trace of Precipitation, MM = Missing Value Source: NWS Daily Summary

Daily Weather History Graph

Daily Weather History Graph

Search for Another Location

Airport or City:

Trip Planner

Search our weather history database for the weather conditions in past years. The results will help you decide how hot, cold, wet, or windy it might be!

Date:

Astronomy

Dec. 03, 2012 Rise Set
Actual Time 6:54 AM HST 5:48 PM HST
Civil Twilight 6:30 AM HST 6:12 PM HST
Nautical Twilight 6:02 AM HST 6:39 PM HST
Astronomical Twilight 5:35 AM HST 7:06 PM HST
Moon 10:25 PM HST (12/3) 10:41 AM HST (12/3)
Length of Visible Light 11h 42m
Length of Day
10h 54m
Waning Gibbous, 76% of the Moon is Illuminated
Dec 3
Waning Gibbous
Dec 6
Last Quarter
Dec 12
New
Dec 19
First Quarter
Dec 28
Full

Hourly Weather History & Observations

Time (HST) Temp. Heat Index Dew Point Humidity Pressure Visibility Wind Dir Wind Speed Gust Speed Precip Events Conditions
12:57 AM 75.2 °F - 68.0 °F 78% 29.94 in 10.0 mi SSW 9.2 mph - N/A   Mostly Cloudy
1:57 AM 77.0 °F - 68.0 °F 74% 29.93 in 10.0 mi SW 11.5 mph - N/A   Mostly Cloudy
2:57 AM 77.0 °F - 66.9 °F 71% 29.91 in 10.0 mi SW 4.6 mph - N/A   Scattered Clouds
3:57 AM 77.0 °F - 66.9 °F 71% 29.90 in 10.0 mi SSW 6.9 mph - N/A   Partly Cloudy
4:57 AM 77.0 °F - 66.9 °F 71% 29.88 in 10.0 mi South 4.6 mph - N/A   Mostly Cloudy
5:57 AM 77.0 °F - 66.9 °F 71% 29.89 in 10.0 mi SSE 5.8 mph - N/A   Mostly Cloudy
6:57 AM 77.0 °F - 66.2 °F 69% 29.91 in 10.0 mi SSW 4.6 mph - N/A   Overcast
7:57 AM 77.0 °F - 68.0 °F 74% 29.93 in 10.0 mi SSW 6.9 mph - N/A   Scattered Clouds
8:57 AM 77.0 °F - 68.0 °F 74% 29.95 in 10.0 mi South 6.9 mph - N/A   Scattered Clouds
9:57 AM 81.1 °F 84.7 °F 70.0 °F 69% 29.96 in 10.0 mi SSW 8.1 mph - N/A   Mostly Cloudy
10:34 AM 80.6 °F 83.9 °F 69.8 °F 70% 29.97 in 6.2 mi West 4.6 mph - N/A Rain Rain
10:57 AM 78.8 °F - 72.3 °F 80% 29.95 in 10.0 mi SW 3.5 mph - N/A Rain Light Rain
11:04 AM 78.8 °F - 71.6 °F 78% 29.97 in 6.2 mi SSW 4.6 mph - N/A   Overcast
11:57 AM 78.8 °F - 72.0 °F 79% 29.94 in 10.0 mi SSW 12.7 mph - N/A   Overcast
12:57 PM 79.5 °F - 73.4 °F 81% 29.91 in 10.0 mi South 6.9 mph - N/A   Mostly Cloudy
1:57 PM 78.8 °F - 73.4 °F 83% 29.91 in 10.0 mi NNE 9.2 mph - N/A   Partly Cloudy
2:57 PM 80.6 °F 84.7 °F 72.1 °F 75% 29.91 in 10.0 mi NNE 6.9 mph - N/A   Scattered Clouds
3:57 PM 80.6 °F 84.7 °F 72.0 °F 75% 29.92 in 10.0 mi NNE 5.8 mph - N/A   Scattered Clouds
4:57 PM 78.8 °F - 72.0 °F 79% 29.93 in 10.0 mi North 4.6 mph - N/A   Mostly Cloudy
5:57 PM 76.3 °F - 70.5 °F 82% 29.94 in 10.0 mi Calm Calm - N/A   Scattered Clouds
6:57 PM 75.2 °F - 71.1 °F 87% 29.96 in 10.0 mi ENE 3.5 mph - N/A   Scattered Clouds
7:57 PM 76.5 °F - 70.5 °F 82% 29.98 in 10.0 mi Calm Calm - N/A   Scattered Clouds
8:57 PM 73.4 °F - 69.8 °F 88% 29.99 in 10.0 mi Calm Calm - N/A   Partly Cloudy
9:57 PM 73.4 °F - 71.6 °F 94% 30.00 in 10.0 mi Calm Calm - N/A   Scattered Clouds
10:57 PM 73.4 °F - 72.0 °F 95% 30.00 in 10.0 mi Calm Calm - N/A   Scattered Clouds
11:57 PM 73.4 °F - 71.6 °F 94% 29.99 in 10.0 mi Calm Calm - N/A   Partly Cloudy